sat.trackr.live / text

‹ back to catalog

STARLINK-31724

NORAD 59554 · 2024-074W

PAYLOAD ACTIVE UNKNOWN

§ Identity

Operator
Country
US
Launch date
2024-04-18
Launch site
AFETR
Launch vehicle
Mass (kg)
RCS (m²)

Purposes: comms

External: N2YO · Heavens-Above · Gunter

§ Orbital elements

Epoch: 2026-05-24T17:31:04.852992Z

Period
94.27 min
Inclination
42.9999°
Eccentricity
0.0001430
Mean motion
15.27582292 rev/d
Perigee alt
482.1 km
Apogee alt
484.0 km
Semi-major
6,861.2 km
B*
6.8055e-5
RAAN
238.0550°
Arg perigee
261.8416°
Mean anomaly
98.2274°
Rev number
11,805

§ Raw data

STARLINK-317241 59554U 24074W   26144.72991728  .00001611  00000+0  68055-4 0  99932 59554  42.9999 238.0550 0001430 261.8416  98.2274 15.27582292118051

JSON: /api/v1/satellites/59554 · /tle

For live sub-satellite position, see the globe view (requires WebGL).

§ Visibility from observer

Set your observer location to see the next 7 days of passes ≥ 10°. The values pass through the URL so the page stays shareable.

No JS? Fill the form by hand. The geolocation button needs JavaScript.